Regional Weather Roundup
Issued by NWS

Home | Current Version | Previous Version | Graphics & Text | Print | Product List | Glossary On
Versions: 1 2 3 4 5 6 7 8 9 10 11 12 13 14 15 16 17 18 19 20 21 22 23 24 25 26 27 28 29 30 31 32 33 34 35 36 37 38 39 40 41 42 43 44 45 46 47 48 49 50
000
ASUS43 KFSD 241310
RWRSD

WEATHER ROUNDUP FOR SOUTH DAKOTA
NATIONAL WEATHER SERVICE SIOUX FALLS SD
700 AM CST WED DEC 24 2014

NOTE: "FAIR" INDICATES FEW OR NO CLOUDS BELOW 12,000 FEET WITH NO
SIGNIFICANT WEATHER AND/OR OBSTRUCTIONS TO VISIBILITY.


SDZ001>005-009-010-012>017-241400-
NORTHWEST AND NORTH CENTRAL SOUTH DAKOTA

CITY           SKY/WX    TMP DP  RH WIND       PRES   REMARKS
BUFFALO          N/A     18  13  80 S9        29.68F WCI   7
FAITH            N/A     12   9  87 S17       29.80F WCI  -5
MOBRIDGE       PTCLDY    20  17  88 S7        29.82F WCI  11
$$

SDZ012>016-024>037-041>051-057-063-072>074-241400-
SOUTHWEST AND SOUTH CENTRAL SOUTH DAKOTA

CITY           SKY/WX    TMP DP  RH WIND       PRES   REMARKS
RAPID CTY ARPT CLEAR     14   9  80 E5        29.80F WCI   6
PIERRE         PTCLDY    14  13  95 SW7       29.89F WCI   4
CUSTER         CLEAR     20   6  55 W7        29.76F WCI  11
ELLSWORTH AFB  PTCLDY    15  10  80 SW2       29.78F
PHILIP         PTCLDY    14  10  84 W8        29.88F WCI   3
PINE RIDGE     PTCLDY    -3  -7  82 CALM      29.87F
SPEARFISH      FAIR      25  10  54 NE5       29.76F WCI  19
WINNER         FAIR      20  17  88 W6        29.90F WCI  12
$$

SDZ004>011-016>023-039-040-241400-
NORTHEAST SOUTH DAKOTA

CITY           SKY/WX    TMP DP  RH WIND       PRES   REMARKS
ABERDEEN       CLOUDY    26  23  88 W7        29.89F WCI  18
WATERTOWN      CLOUDY    26  24  92 NW12      29.85F WCI  16
SISSETON         N/A     28  26  92 NW13      29.86F WCI  17
$$

SDZ017-020-022-023-036>040-048>070-241400-
SOUTHEAST SOUTH DAKOTA

CITY           SKY/WX    TMP DP  RH WIND       PRES   REMARKS
SIOUX FALLS    CLOUDY    29  27  92 NW12      29.87S WCI  19
HURON          CLOUDY    24  22  91 NW9       29.91F WCI  14
CHAMBERLAIN    CLOUDY    26  24  93 W9        29.91F WCI  16
MITCHELL       CLOUDY    25  23  92 NW10      29.92F WCI  15
YANKTON        CLOUDY    27  23  86 NW15      29.92F WCI  15
$$

ABBREVIATIONS USED IN REMARKS
   TC - TEMPERATURE IN CELSIUS
  WCI - WIND CHILL INDEX
   HX - HEAT INDEX
  VSB - VISIBILITY



USA.gov is the U.S. government's official web portal to all federal, state and local government web resources and services.